| time (UTC) | temp F | wind direction | speed knots | gust knots | rain 1hr in | rain 24hr in | rain mn in | humidity % | barometer mb |
| 20260505014509 | 72 | 163 | 4.3 | 7.8 | 0.00 | 0.00 | 0.00 | 85 | 1011.2 |
| 20260505013006 | 72 | 153 | 4.3 | 7.8 | 0.00 | 0.00 | 0.00 | 84 | 1011.0 |
| 20260505011506 | 73 | 185 | 6.1 | 9.6 | 0.00 | 0.00 | 0.00 | 82 | 1010.6 |
| 20260505010004 | 74 | 159 | 6.1 | 11.3 | 0.00 | 0.00 | 0.00 | 81 | 1010.9 |
| 20260505004505 | 75 | 185 | 4.3 | 12.2 | 0.00 | 0.00 | 0.00 | 79 | 1011.0 |
| 20260505003103 | 75 | 181 | 7.0 | 13.9 | 0.00 | 0.00 | 0.00 | 78 | 1010.8 |
| 20260505001559 | 75 | 173 | 7.8 | 13.9 | 0.00 | 0.00 | 0.00 | 77 | 1010.8 |
| 20260504234613 | 77 | 214 | 8.7 | 13.9 | 0.00 | 0.00 | 0.00 | 77 | 1010.8 |
| 20260504233050 | 77 | 168 | 13.0 | 18.2 | 0.00 | 0.00 | 0.00 | 74 | 1011.1 |
| 20260504231553 | 78 | 194 | 11.3 | 18.2 | 0.00 | 0.00 | 0.00 | 74 | 1011.2 |
| 20260504230044 | 78 | 181 | 10.4 | 13.9 | 0.00 | 0.00 | 0.00 | 73 | 1011.4 |
| 20260504224543 | 77 | 202 | 9.6 | 17.4 | 0.00 | 0.00 | 0.00 | 74 | 1011.4 |
| 20260504223043 | 77 | 178 | 9.6 | 19.1 | 0.00 | 0.00 | 0.00 | 74 | 1011.5 |
| 20260504221544 | 77 | 171 | 8.7 | 18.2 | 0.00 | 0.00 | 0.00 | 74 | 1011.6 |
| 20260504220040 | 78 | 193 | 10.4 | 15.6 | 0.00 | 0.00 | 0.00 | 72 | 1011.7 |
| 20260504214540 | 78 | 173 | 6.1 | 14.8 | 0.00 | 0.00 | 0.00 | 75 | 1012.0 |
| 20260504213036 | 78 | 182 | 9.6 | 15.6 | 0.00 | 0.00 | 0.00 | 74 | 1012.2 |
| 20260504211533 | 78 | 178 | 9.6 | 17.4 | 0.00 | 0.00 | 0.00 | 75 | 1012.6 |
| 20260504210033 | 78 | 170 | 8.7 | 15.6 | 0.00 | 0.00 | 0.00 | 73 | 1012.8 |
| 20260504204608 | 78 | 163 | 11.3 | 16.5 | 0.00 | 0.00 | 0.00 | 71 | 1012.9 |
| 20260504203031 | 78 | 180 | 11.3 | 16.5 | 0.00 | 0.00 | 0.00 | 70 | 1012.9 |
| 20260504201528 | 79 | 171 | 8.7 | 14.8 | 0.00 | 0.00 | 0.00 | 70 | 1013.1 |
| 20260504200033 | 79 | 187 | 9.6 | 15.6 | 0.00 | 0.00 | 0.00 | 70 | 1013.5 |
| 20260504194527 | 78 | 171 | 7.8 | 17.4 | 0.00 | 0.00 | 0.00 | 72 | 1013.6 |
| 20260504193025 | 78 | 198 | 8.7 | 15.6 | 0.00 | 0.00 | 0.00 | 72 | 1013.7 |
| 20260504191521 | 78 | 186 | 8.7 | 14.8 | 0.00 | 0.00 | 0.00 | 67 | 1014.0 |
| 20260504190020 | 78 | 182 | 7.0 | 14.8 | 0.00 | 0.00 | 0.00 | 71 | 1014.1 |
| 20260504184520 | 78 | 196 | 7.0 | 14.8 | 0.00 | 0.00 | 0.00 | 70 | 1014.2 |
| 20260504183018 | 77 | 176 | 7.0 | 14.8 | 0.00 | 0.00 | 0.00 | 69 | 1014.4 |
| 20260504181515 | 77 | 175 | 9.6 | 13.9 | 0.00 | 0.00 | 0.00 | 69 | 1014.7 |
| 20260504180014 | 77 | 188 | 10.4 | 14.8 | 0.00 | 0.00 | 0.00 | 69 | 1014.6 |
| 20260504174512 | 76 | 178 | 7.0 | 14.8 | 0.00 | 0.00 | 0.00 | 71 | 1014.9 |
| 20260504173011 | 76 | 168 | 7.0 | 15.6 | 0.00 | 0.00 | 0.00 | 71 | 1015.1 |
| 20260504171532 | 76 | 182 | 7.0 | 13.0 | 0.00 | 0.00 | 0.00 | 73 | 1015.1 |
| 20260504081522 | 59 | 162 | 0.0 | 0.0 | 0.00 | 0.00 | 0.00 | 93 | 1016.8 |
| 20260504044538 | 62 | 182 | 2.6 | 5.2 | 0.00 | 0.00 | 0.00 | 85 | 1019.3 |
| 20260504043031 | 63 | 182 | 2.6 | 4.3 | 0.00 | 0.00 | 0.00 | 84 | 1019.3 |
| 20260504041532 | 63 | 182 | 2.6 | 3.5 | 0.00 | 0.00 | 0.00 | 85 | 1019.2 |
| 20260504040029 | 63 | 182 | 1.7 | 3.5 | 0.00 | 0.00 | 0.00 | 85 | 1019.3 |
| 20260504034529 | 63 | 182 | 2.6 | 5.2 | 0.00 | 0.00 | 0.00 | 83 | 1019.3 |
| 20260504033028 | 64 | 184 | 3.5 | 5.2 | 0.00 | 0.00 | 0.00 | 82 | 1019.2 |
| 20260504031528 | 64 | 180 | 2.6 | 5.2 | 0.00 | 0.00 | 0.00 | 81 | 1019.2 |
| 20260504030037 | 65 | 192 | 4.3 | 6.1 | 0.00 | 0.00 | 0.00 | 79 | 1019.3 |
| 20260504024527 | 66 | 177 | 2.6 | 4.3 | 0.00 | 0.00 | 0.00 | 77 | 1018.9 |
| 20260504023028 | 66 | 188 | 4.3 | 7.8 | 0.00 | 0.00 | 0.00 | 75 | 1018.8 |
| 20260504021528 | 67 | 175 | 4.3 | 7.8 | 0.00 | 0.00 | 0.00 | 74 | 1018.7 |
| 20260504020028 | 67 | 165 | 5.2 | 11.3 | 0.00 | 0.00 | 0.00 | 72 | 1018.7 |